Location: Saint-Usage
(47.1052°N, 5.2587°E)
Time: 02:26:45
(UTC+02:00)

Envisat - Pass Details

Date: 04 October 2021
Orbit: 764 x 766 km, 98.2° (Epoch: 17 October)

Event Time Altitude Azimuth Distance (km) Brightness Sun altitude
Rises 07:00:57 0° 13° (NNE) 3,242 6.4 -7.8°
Reaches altitude 10° 07:03:16 10° 12° (NNE) 2,311 5.7 -7.4°
Maximum altitude 07:08:23 85° 285° (WNW) 774 3.0 -6.5°
Drops below altitude 10° 07:13:26 10° 198° (SSW) 2,294 5.3 -5.7°
Sets 07:15:44 0° 198° (SSW) 3,216 6.1 -5.3°
